Terminal Aerodrome Forecast
Issued by NWS Boston, MA

Home | Current Version | Previous Version | Text Only | Print | Product List | Glossary On
Versions: 1 2 3 4 5 6 7 8 9 10 11 12 13 14 15 16 17 18 19 20 21 22 23 24 25 26 27 28 29 30 31 32 33 34 35 36 37 38 39 40 41 42 43 44
000
FTUS41 KBOX 051514 AAA
TAFBOS
TAF AMD
KBOS 051514Z 0515/0618 27007KT P6SM SCT250
     FM051600 10004KT P6SM FEW060 FEW250
     FM052000 14008KT P6SM FEW060 SCT150
     FM052300 20006KT P6SM FEW070
     FM060500 26004KT P6SM FEW250
     FM061600 10004KT P6SM FEW250=

USA.gov is the U.S. government's official web portal to all federal, state and local government web resources and services.